Date String (YYYY-MM-DD hh:mm:ss) UTC,Instrument flags,Ambient pressure (hPa),Sample flow (lpm),Bypass flow (lpm),Sample temperature (°C),Ambient temperature (°C),ASC tube jacket temperature (°C),LED temperature (°C),Box temperature (°C),Sample RH (%),Span deviation,Mass concentration (μg/m³),Mass concentration (μg/m³),Mass concentration (μg/m³)
DateTimeUTC,F1_M11,P_M11,Q1_M11,Q2_M11,T1_M11,T2_M11,T3_M11,T4_M11,T5_M11,U1_M11,ZSPAN_M11,X0_M11,X2_M11,X1_M11
2023-02-15 00:00:00,,0806.9,5.00,0.00,22.4,21.3,00.0,31.2,24.2,07.2,0000.0,0004.14,0002.08,0001.68
2023-02-15 00:01:00,,0806.9,5.02,0.00,22.4,21.1,00.0,31.2,24.2,07.1,0000.0,0004.33,0002.06,0001.67
2023-02-15 00:02:00,,0807.0,5.00,0.00,22.4,21.0,00.0,31.2,24.2,07.1,0000.0,0005.83,0002.08,0001.69
2023-02-15 00:03:00,,0807.0,5.01,0.00,22.4,20.9,00.0,31.2,24.2,07.1,0000.0,0005.95,0002.10,0001.69
2023-02-15 00:04:00,,0807.0,5.00,0.00,22.3,20.8,00.0,31.2,24.1,07.1,0000.0,0006.55,0002.12,0001.69
2023-02-15 00:05:00,,0807.0,5.00,0.00,22.3,20.7,00.0,31.2,24.1,07.1,0000.0,0006.90,0002.14,0001.69
2023-02-15 00:06:00,,0807.2,5.00,0.00,22.3,20.6,00.0,31.2,24.0,07.2,0000.0,0006.87,0002.13,0001.67
2023-02-15 00:07:00,,0807.2,5.00,0.00,22.3,20.6,00.0,31.2,24.0,07.1,0000.0,0006.81,0002.10,0001.66
2023-02-15 00:08:00,,0807.2,4.99,0.00,22.3,20.6,00.0,31.2,24.0,07.2,0000.0,0006.82,0002.09,0001.66
2023-02-15 00:09:00,,0807.2,5.00,0.00,22.3,20.6,00.0,31.2,24.0,07.4,0000.0,0006.71,0002.07,0001.64
2023-02-15 00:10:00,,0807.3,5.00,0.00,22.2,20.6,00.0,31.2,24.0,07.3,0000.0,0006.73,0002.07,0001.64
2023-02-15 00:11:00,,0807.4,5.00,0.00,22.2,20.6,00.0,31.2,23.9,07.2,0000.0,0006.69,0002.09,0001.64
2023-02-15 00:12:00,,0807.4,5.00,0.00,22.2,20.6,00.0,31.1,23.9,07.3,0000.0,0007.39,0002.18,0001.64
2023-02-15 00:13:00,,0807.5,4.98,0.00,22.2,20.6,00.0,31.1,23.9,07.3,0000.0,0007.59,0002.22,0001.63
2023-02-15 00:14:00,,0807.6,4.99,0.00,22.2,20.6,00.0,31.1,23.9,07.2,0000.0,0007.62,0002.20,0001.61
2023-02-15 00:15:00,,0807.7,5.00,0.00,22.2,20.6,00.0,31.1,24.0,07.4,0000.0,0007.42,0002.20,0001.60
2023-02-15 00:16:00,,0807.7,5.01,0.00,22.2,20.6,00.0,31.1,24.0,07.9,0000.0,0007.38,0002.20,0001.60
2023-02-15 00:17:00,,0807.6,5.01,0.00,22.2,20.6,00.0,31.1,24.0,08.3,0000.0,0008.25,0002.23,0001.61
2023-02-15 00:18:00,,0807.7,4.97,0.00,22.2,20.6,00.0,31.1,24.0,08.4,0000.0,0008.42,0002.28,0001.63
2023-02-15 00:19:00,,0807.7,5.02,0.00,22.2,20.6,00.0,31.1,24.0,08.4,0000.0,0008.60,0002.37,0001.65
2023-02-15 00:20:00,,0807.7,4.99,0.00,22.2,20.5,00.0,31.1,23.9,08.5,0000.0,0009.11,0002.51,0001.67
2023-02-15 00:21:00,,0807.7,5.00,0.00,22.1,20.5,00.0,31.1,23.9,08.4,0000.0,0009.92,0002.60,0001.68
2023-02-15 00:22:00,,0807.7,5.00,0.00,22.1,20.5,00.0,31.1,23.9,08.4,0000.0,0010.58,0002.62,0001.69
2023-02-15 00:23:00,,0807.6,5.02,0.00,22.1,20.5,00.0,31.1,23.9,08.4,0000.0,0010.58,0002.69,0001.70
2023-02-15 00:24:00,,0807.6,5.00,0.00,22.2,21.3,00.0,31.0,24.1,08.4,0000.0,0009.97,0002.77,0001.73
2023-02-15 00:25:00,,0807.7,4.95,0.00,22.3,22.4,00.0,31.0,24.4,08.3,0000.0,0010.22,0002.84,0001.75
2023-02-15 00:26:00,,0807.7,4.98,0.00,22.4,22.9,00.0,31.1,24.6,08.3,0000.0,0010.42,0002.90,0001.77
2023-02-15 00:27:00,,0807.6,4.98,0.00,22.5,22.5,00.0,31.1,24.5,08.3,0000.0,0010.70,0002.95,0001.79
2023-02-15 00:28:00,,0807.7,5.00,0.00,22.5,22.1,00.0,31.2,24.4,08.2,0000.0,0010.08,0002.95,0001.79
2023-02-15 00:29:00,,0807.7,4.99,0.00,22.5,21.8,00.0,31.2,24.4,08.3,0000.0,0009.94,0002.96,0001.79
2023-02-15 00:30:00,,0807.6,4.98,0.00,22.5,21.5,00.0,31.2,24.4,08.5,0000.0,0011.26,0002.99,0001.78
2023-02-15 00:31:00,,0807.7,5.01,0.00,22.5,21.3,00.0,31.2,24.3,08.5,0000.0,0011.93,0002.95,0001.77
2023-02-15 00:32:00,,0807.6,5.00,0.00,22.4,21.1,00.0,31.2,24.2,08.5,0000.0,0011.97,0003.00,0001.77
2023-02-15 00:33:00,,0807.7,5.00,0.00,22.4,20.9,00.0,31.3,24.2,08.5,0000.0,0012.29,0003.09,0001.81
2023-02-15 00:34:00,,0807.7,5.00,0.00,22.4,20.7,00.0,31.3,24.1,08.4,0000.0,0011.78,0003.07,0001.84
2023-02-15 00:35:00,,0807.6,5.00,0.00,22.4,20.6,00.0,31.3,24.1,08.5,0000.0,0011.91,0003.06,0001.88
2023-02-15 00:36:00,,0807.7,5.00,0.00,22.3,20.5,00.0,31.3,24.0,08.8,0000.0,0011.67,0003.12,0001.92
2023-02-15 00:37:00,,0807.6,5.01,0.00,22.3,20.4,00.0,31.2,24.0,09.1,0000.0,0011.85,0003.21,0002.02
2023-02-15 00:38:00,,0807.7,5.00,0.00,22.3,20.4,00.0,31.2,23.9,09.6,0000.0,0012.39,0003.30,0002.12
2023-02-15 00:39:00,,0807.6,5.00,0.00,22.2,20.3,00.0,31.2,23.9,09.6,0000.0,0013.20,0003.44,0002.28
2023-02-15 00:40:00,,0807.7,5.00,0.00,22.2,20.2,00.0,31.2,23.9,09.4,0000.0,0014.29,0003.52,0002.37
2023-02-15 00:41:00,,0807.7,4.99,0.00,22.2,20.2,00.0,31.2,23.8,09.5,0000.0,0014.33,0003.61,0002.46
2023-02-15 00:42:00,,0807.8,5.00,0.00,22.1,20.1,00.0,31.2,23.8,09.7,0000.0,0014.03,0003.69,0002.58
2023-02-15 00:43:00,,0807.8,5.01,0.00,22.1,20.0,00.0,31.1,23.7,09.2,0000.0,0014.06,0003.75,0002.66
2023-02-15 00:44:00,,0807.8,5.01,0.00,22.0,20.0,00.0,31.1,23.7,09.5,0000.0,0014.03,0003.80,0002.69
2023-02-15 00:45:00,,0807.8,5.01,0.00,22.0,19.9,00.0,31.1,23.6,10.1,0000.0,0015.07,0003.94,0002.77
2023-02-15 00:46:00,,0807.9,5.01,0.00,22.0,19.9,00.0,31.1,23.6,10.3,0000.0,0016.28,0004.05,0002.87
2023-02-15 00:47:00,,0807.9,5.00,0.00,22.0,21.0,00.0,31.0,23.8,10.1,0000.0,0016.56,0004.08,0002.93
2023-02-15 00:48:00,,0808.0,4.99,0.00,22.1,22.2,00.0,31.0,24.1,10.2,0000.0,0017.13,0004.07,0002.94
2023-02-15 00:49:00,,0808.1,5.00,0.00,22.3,22.7,00.0,31.0,24.3,10.3,0000.0,0016.70,0004.02,0002.95
2023-02-15 00:50:00,,0808.1,5.02,0.00,22.3,22.3,00.0,31.1,24.2,10.7,0000.0,0015.79,0004.01,0002.94
2023-02-15 00:51:00,,0808.1,5.00,0.00,22.3,21.8,00.0,31.1,24.1,11.1,0000.0,0015.50,0004.11,0003.02
2023-02-15 00:52:00,,0808.1,4.97,0.00,22.3,21.4,00.0,31.1,24.0,11.2,0000.0,0014.76,0004.16,0003.11
2023-02-15 00:53:00,,0808.2,5.00,0.00,22.2,21.1,00.0,31.1,24.0,11.4,0000.0,0014.31,0004.21,0003.15
2023-02-15 00:54:00,,0808.3,5.00,0.00,22.2,20.9,00.0,31.1,23.9,11.7,0000.0,0014.03,0004.31,0003.22
2023-02-15 00:55:00,,0808.3,5.00,0.00,22.2,20.7,00.0,31.1,23.9,11.3,0000.0,0014.30,0004.39,0003.27
2023-02-15 00:56:00,,0808.2,4.99,0.00,22.2,20.6,00.0,31.1,23.9,09.9,0000.0,0013.54,0004.33,0003.27
2023-02-15 00:57:00,,0808.3,5.00,0.00,22.1,20.6,00.0,31.1,23.9,09.6,0000.0,0013.02,0004.28,0003.23
2023-02-15 00:58:00,,0808.3,4.99,0.00,22.1,20.5,00.0,31.1,23.9,09.5,0000.0,0013.03,0004.23,0003.20
2023-02-15 00:59:00,,0808.3,4.99,0.00,22.1,20.5,00.0,31.1,23.9,09.2,0000.0,0012.56,0004.21,0003.17
